Preview of NWS' New Version of Forecast
This preview is not operational and should not be used for support decisions.
Latest weather observations around

Astoria, Astoria Regional Airport (KAST)

Using English Units (Switch to International System of Units)
Date/ Time (PDT) Wind (mph) Vis. (mi) Weather Sky Cond. Temp (°F) Rel. Humidity Wind Chill (°F) Heat Index (°F) Pressure Precip. (in)
Air Dwpt 6 hour Altimeter (inHg) Sea level (inHg) 1 hr 3 hr 6 hr
Max Min
Jun 26 14:55 WNW 13 10 Clear CLR 65 51     61%     29.88 29.88      
Jun 26 13:55 W 13 10 Cloudy OVC110 65 53     65%     29.88 29.88      
Jun 26 12:55 WNW 9 10 Mostly Cloudy FEW025 SCT031 BKN110 65 52     63%     29.88 29.88      
Jun 26 12:47 WNW 10 10 Partly Cloudy SCT024 SCT031 SCT041 65 52     63%     29.88        
Jun 26 12:24 W 9 10 Mostly Cloudy BKN024 BKN031 BKN043 63 52     67%     29.88        
Jun 26 11:55 NNW 10 10 Clear CLR 64 51     63%     29.88 29.88      
Jun 26 10:55 N 7 10 Mostly Cloudy BKN120 63 50     63%     29.88 29.88      
Jun 26 09:55 5 10 Mostly Clear FEW100 62 52     70%     29.88 29.88      
Jun 26 08:55 SE 5 10 Clear CLR 55 51     86%     29.9 29.89      
Jun 26 08:38 Calm 10 Partly Cloudy SCT010 55 50     83%     29.9        
Jun 26 08:27 Calm 10 Mostly Cloudy BKN010 54 49     83%     29.9        
Jun 26 07:55 ESE 3 10 Clear CLR 51 48     89%     29.9 29.9      
Jun 26 06:55 SE 3 10 Clear CLR 48 46     93% 47   29.91 29.91      
Jun 26 05:55 ESE 3 10 Clear CLR 47 44     90% 46   29.91 29.91      
Jun 26 04:55 ESE 5 10 Clear CLR 47 44     90% 45   29.9 29.9      
Jun 26 03:55 SSE 6 10 Clear CLR 47 45     93% 44   29.91 29.9      
Jun 26 02:55 ESE 5 10 Mostly Cloudy BKN065 48 45     89% 46   29.92 29.92      
Jun 26 01:55 Calm 10 Clear CLR 50 47     89%     29.92 29.92      
Jun 26 00:55 ESE 5 10 Clear CLR 50 48     93%     29.93 29.92      
Jun 25 23:55 ESE 3 10 Clear CLR 51 49     92%     29.93 29.92      
Jun 25 22:55 SSE 5 10 Clear CLR 53 50     89%     29.93 29.92      
Jun 25 21:55 SSW 3 10 Clear CLR 55 49     80%     29.92 29.92      
Jun 25 20:55 WSW 5 10 Clear CLR 56 49     77%     29.91 29.91      
Jun 25 19:55 WSW 6 10 Partly Cloudy SCT060 58 50     75%     29.9 29.9      
Jun 25 18:55 SW 10 10 Cloudy OVC046 59 50     72%     29.9 29.9      
Jun 25 17:55 SW 9 10 Cloudy OVC041 60 51     72%     29.9 29.9      
Jun 25 16:55 SSW 10 10 Cloudy OVC043 60 50     69%     29.9 29.9      
Jun 25 15:55 WSW 15 10 Mostly Cloudy SCT020 SCT040 BKN048 62 52     70%     29.9 29.9      
Jun 25 15:30 SW 8 10 Mostly Cloudy SCT016 BKN050 61 52     72%     29.91        
Jun 25 14:55 WSW 13 10 Cloudy BKN015 BKN021 OVC060 62 54     75%     29.91 29.91      
Jun 25 14:34 SW 11 10 Cloudy BKN014 BKN048 OVC090 61 53     75%     29.91        
Jun 25 13:55 WSW 10 10 Cloudy BKN018 BKN042 OVC050 61 52     72%     29.9 29.9      
Jun 25 13:51 SW 10 10 Cloudy BKN018 BKN042 OVC050 61 52     72%     29.9        
Jun 25 12:55 WSW 10 10 Mostly Cloudy FEW025 BKN060 BKN085 63 52     67%     29.9 29.9      
Jun 25 11:55 WSW 11 10 Partly Cloudy FEW025 SCT032 SCT085 63 50     63%     29.9 29.9      
Jun 25 11:21 SW 7 10 Partly Cloudy SCT025 62 50     65%     29.9        
Jun 25 11:14 SW 8 10 Mostly Cloudy BKN025 BKN060 61 50     67%     29.9        
Jun 25 10:55 WSW 8 10 Mostly Cloudy FEW027 BKN060 BKN075 63 50     63%     29.9 29.9      
Jun 25 09:55 WSW 6 10 Cloudy BKN070 OVC090 59 49     69%     29.9 29.89      
Jun 25 08:55 W 6 10 Partly Cloudy SCT090 59 49     69%     29.9 29.9      
Jun 25 06:55 S 3 10 Clear CLR 50 47     89%     29.9 29.9      
Jun 25 05:55 SE 5 10 Mostly Clear FEW037 FEW060 50 47     89%     29.9 29.9      
Jun 25 03:55 Calm 10 Mostly Cloudy FEW043 BKN085 52 49     89%     29.9 29.9      
Jun 25 02:55 S 3 10 Cloudy OVC090 52 49     89%     29.9 29.9      
Jun 25 01:55 SSE 3 10 Cloudy OVC090 52 48     86%     29.91 29.91      
Jun 25 00:55 Calm 10 Mostly Cloudy BKN100 BKN120 51 48     89%     29.92 29.91      
Jun 24 23:55 S 3 10 Clear CLR 52 48     86%     29.92 29.92      
Jun 24 22:55 SE 6 10 Clear CLR 53 48     83%     29.93 29.93      
Jun 24 21:55 WNW 5 10 Clear CLR 54 47     77%     29.94 29.93      
Jun 24 20:55 NW 7 10 Clear CLR 58 48     70%     29.94 29.93      
Jun 24 19:55 NW 11 10 Clear CLR 61 49     64%     29.95 29.94      
Jun 24 18:55 NW 15 10 Clear CLR 61 48     62%     29.96 29.96      
Jun 24 17:55 NNW 14 10 Clear   62 48     60%     29.98 29.98      
Jun 24 14:55 NNW 10 10 Clear   63 48     58%     30.04 30.03      
Jun 24 12:55 NNW 9 10 Cloudy OVC038 61 48     62%     30.06 30.06      
Jun 24 11:55 NNW 8 10 Cloudy OVC037 60 47     62%     30.07 30.07      
Jun 24 09:55 N 7 10 Cloudy OVC038 60 49     67%     30.09 30.09      
Jun 24 08:55 NNW 6 10 Cloudy OVC039 57 49     74%     30.09 30.09      
Jun 24 07:55 NNW 7 10 Cloudy SCT019 OVC040 57 50     77%     30.1 30.09      
Jun 24 07:10 NNW 6 10 Cloudy SCT024 OVC040 56 50     80%     30.09        
Jun 24 06:55 NNW 5 10 Cloudy FEW013 BKN024 OVC039 55 51     86%     30.09 30.09      
Jun 24 06:53 NNW 6 10 Cloudy SCT013 BKN024 OVC040 55 52     88%     30.09        
Jun 24 06:29 Calm 10 Cloudy BKN014 BKN022 OVC038 54 51     90%     30.09        
Jun 24 06:05 Calm 10 Cloudy BKN015 BKN030 OVC041 54 51     90%     30.1        
Jun 24 05:55 Calm 10 Cloudy FEW016 SCT029 OVC040 54 51     90%     30.1 30.09      
Jun 24 05:52 Calm 10 Cloudy FEW016 SCT029 OVC040 54 52     94%     30.1        
Jun 24 05:45 Calm 10 Cloudy SCT016 BKN029 OVC039 53 51     93%     30.1        
Jun 24 05:31 S 3 10 Cloudy SCT014 OVC040 54 51     90%     30.1        
Jun 24 05:11 Calm 10 Cloudy BKN014 OVC040 54 51     90%     30.11        
Jun 24 04:55 Calm 10 Cloudy FEW013 FEW018 OVC040 54 51     90%     30.11 30.11     0
Jun 24 04:51 Calm 10 Cloudy FEW013 FEW018 OVC040 54 52     94%     30.11        
Jun 24 04:04 Calm 10 Cloudy SCT014 BKN020 OVC041 54 51     90%     30.12        
Jun 24 03:55 Calm 9 Cloudy BKN014 BKN021 OVC039 54 51     90%     30.12 30.12 0    
Jun 24 03:48 Calm 10 Cloudy BKN014 BKN021 OVC037 54 51     90%     30.12   0    
Jun 24 03:42 Calm 10 Cloudy SCT013 SCT021 OVC036 53 50     89%     30.12   0    
Jun 24 03:33 SW 3 9 Light Rain BKN013 OVC034 53 51     93%     30.13   0    
Jun 24 02:55 SW 5 10 Cloudy OVC035 53 50     89%     30.13 30.13 0    
Jun 24 02:23 SSW 3 10 Cloudy SCT015 OVC039 53 50     89%     30.14   0    
Jun 24 02:12 WSW 3 10 Light Rain BKN015 BKN022 OVC040 53 50     89%     30.14   0    
Jun 24 01:55 SW 3 10 Cloudy OVC040 53 50     89%     30.14 30.14      
Jun 24 01:19 S 3 10 Cloudy FEW018 OVC044 53 50     89%     30.14        
Jun 24 00:55 Calm 10 Cloudy BKN016 BKN022 OVC044 53 50     89%     30.15 30.14      
Jun 24 00:15 Calm 10 Mostly Cloudy BKN017 53 49     86%     30.15        
Jun 24 00:02 Calm 10 Mostly Cloudy SCT017 BKN035 53 49     86%     30.15        
Jun 23 23:55 W 3 10 Mostly Cloudy BKN019 BKN032 BKN039 53 49     86%     30.16 30.15      
Jun 23 23:26 NW 6 10 Cloudy BKN017 BKN022 OVC039 55 49     80%     30.17        
Jun 23 22:55 NW 8 10 Cloudy FEW016 OVC041 55 49     80%     30.17 30.17      
Jun 23 22:02 NNW 7 10 Mostly Cloudy FEW018 SCT028 BKN039 56 49     77%     30.18        
Jun 23 21:55 NW 9 10 Mostly Cloudy FEW019 BKN026 BKN039 56 48     75%     30.17 30.17      
Jun 23 20:55 W 6 10 Cloudy SCT018 BKN023 OVC031 56 50     80%     30.17 30.17      
Jun 23 20:50 W 6 10 Cloudy FEW018 BKN023 OVC031 55 50     82%     30.17        
Jun 23 19:55 WNW 9 10 Cloudy SCT026 OVC041 57 48     72%     30.19 30.19      
Jun 23 19:52 WNW 9 10 Cloudy SCT026 OVC041 57 48     72%     30.19        
Jun 23 19:11 NW 8 10 Cloudy BKN025 OVC042 59 48     67%     30.2        
Jun 23 18:55 WNW 7 10 Cloudy SCT024 OVC042 59 47     64%     30.2 30.19      
Jun 23 18:11 W 9 10 Mostly Cloudy FEW024 BKN031 BKN039 58 48     70%     30.2        
Jun 23 17:55 W 8 10 Mostly Cloudy SCT023 BKN029 BKN041 59 48     67%     30.21 30.21      
Jun 23 17:27 W 10 10 Cloudy SCT025 SCT030 OVC040 59 49     69%     30.21        
Jun 23 16:55 WNW 7 10 Cloudy BKN024 OVC040 59 49     69%     30.22 30.22     0
Jun 23 16:44 N 6 10 Cloudy BKN024 BKN030 OVC040 59 48     67%     30.22        
Jun 23 15:55 NW 9 10 Cloudy FEW021 OVC037 60 49     67%     30.22 30.22      
Jun 23 14:55 WNW 10 10 Cloudy OVC041 60 49     67%     30.23 30.23      
Jun 23 14:18 W 13 10 Cloudy SCT027 OVC038 60 50     69%     30.24        
Jun 23 13:55 NNW 11 10 Cloudy BKN026 OVC036 60 49     67%     30.23 30.23 0 0  
Jun 23 13:35 NW 11 10 Cloudy SCT028 OVC038 60 49     67%     30.23   0    
Jun 23 12:55 NNW 9 10 Light Rain BKN025 OVC034 59 50     72%     30.24 30.24 0    
Jun 23 12:21 WNW 9 10 Cloudy FEW012 SCT018 OVC028 57 52     83%     30.24   0    
May 15 09:55 SW 10 6 Fog/Mist BKN008 OVC017 55 54     96%     29.98 29.98      
Notice The following observation data may not be complete
May 15 09:02   7 Cloudy BKN008 OVC017          %              
May 15 05:12 Calm 2 Light Rain and Fog/Mist BKN007 OVC014 53 53     100%     29.95   0    
May 14 22:55 SW 7 10 Cloudy OVC007 55 52     89%     29.95 29.94      
May 14 09:55 3 10 Cloudy OVC011 57 52     83%     29.99 29.99      
May 14 06:55 S 3 10 Cloudy OVC009 54 52     93%     29.99 29.99      
May 13 14:55 WSW 8 10 Clear CLR 70 57     63%     29.91 29.91      
May 13 12:55 WSW 11 10 Clear CLR 69 58     68%     29.91 29.91      
May 13 08:55 Calm 10 Clear CLR 60 55     83%     29.93 29.93      
May 13 06:19 E 5 10 Partly Cloudy SCT002 48 48     100% 46   29.93        
May 13 05:55 SE 3 0.25 Fog VV002 48 48     100% 47   29.93 29.92      
May 12 03:55 NW 3 10 Cloudy OVC010 51 48     89%     30.17 30.17      
May 11 14:55 NW 16 10 Cloudy OVC028 57 50     77%     30.28 30.27      
May 11 09:55 NNW 9 10 Cloudy FEW022 OVC030 56 49     77%     30.3 30.29      
Jun 11 20:44 WNW 6 10 Clear   56 48     75%     30.05        
Jun 10 11:21 WSW 6 5 Light Rain BKN022 BKN030 OVC037 52 47     83%     29.87   0    
Notice The following observation data may not be complete
Jun 09 17:25   10 Mostly Cloudy BKN028 BKN034          %              
Jun 09 06:55 E 6 10 Light Rain BKN060 OVC075 50 47     89% 48   29.88 29.88 0    
Jun 08 06:14 S 9 10 Light Rain FEW019 BKN028 OVC034 55 52     89%     29.64   0    
Jun 08 05:55 S 11 10 Light Rain SCT028 BKN039 OVC070 55 51     86%     29.63 29.63 0    
Jun 08 01:55 E 8 5 Light Rain and Fog/Mist FEW026 OVC036 54 51     90%     29.68 29.68 0 0  
Jun 07 12:55 SW 10 10 Clear CLR 62 52     70%     29.79 29.79